Location: Lecco
(45.8566°N, 9.3977°E)
Time: 08:35:45
(UTC+02:00)

Altair - Pass Details

Date: 23 August 2020
Orbit: 1501 x 1682 km, 47.2° (Epoch: 25 September)

Event Time Altitude Azimuth Distance (km) Brightness Sun altitude
Rises 05:47:55 0° 290° (WNW) 4,784 9.7 -8.1°
Reaches altitude 10° 05:51:04 10° 288° (WNW) 3,773 9.1 -7.6°
Maximum altitude 06:00:28 68° 208° (SSW) 1,633 7.5 -6.1°
Drops below altitude 10° 06:09:33 10° 128° (SE) 3,656 9.9 -4.6°
Sets 06:12:34 0° 126° (SE) 4,628 10.5 -4.1°
